Ashgabat, Turkmenistan

7:20 AM +05 on November 17, 2019 (GMT +0500)
Ashgabat

Weather History for UTAA - June, 2019

Change the Weather History Date:

Saturday, June 8, 2019

  Actual Average (WUND) Record (WUND)
Temperature  
Mean Temperature 84 °F -  
Max Temperature 95 °F 97 °F - (-1)
Min Temperature 73 °F 70 °F - (-1)
Cooling Degree Days 19    
Growing Degree Days 34 (Base 50)    
Moisture  
Dew Point 43 °F    
Average Humidity 23    
Maximum Humidity 39    
Minimum Humidity 6    
Precipitation  
Precipitation 0.00 in 0.00 in - ()
Sea Level Pressure  
Sea Level Pressure 29.94 in    
Wind  
Wind Speed 5 mph ()    
Max Wind Speed 16 mph    
Max Gust Speed -    
Visibility 6.1 miles    
Events      
Averages and records for this station are not official NWS values.
T = Trace of Precipitation, MM = Missing Value Source: Averaged Metar Reports

Daily Weather History Graph

Daily Weather History Graph

Search for Another Location

Airport or City:

Astronomy

Jun. 08, 2019 Rise Set
Actual Time 5:44 AM +05 8:27 PM +05
Civil Twilight 5:12 AM +05 8:58 PM +05
Nautical Twilight 4:34 AM +05 9:37 PM +05
Astronomical Twilight 3:50 AM +05 10:21 PM +05
Moon 10:40 AM +05 (6/8) 12:13 AM +05 (6/8)
Length of Visible Light 15h 45m
Length of Day
14h 43m
Waxing Crescent, 28% of the Moon is Illuminated
Jun 8
Waxing Crescent
Jun 10
First Quarter
Jun 17
Full
Jun 25
Last Quarter
Jul 3
New

Hourly Weather History & Observations

Time (+05) Temp. Heat Index Dew Point Humidity Pressure Visibility Wind Dir Wind Speed Gust Speed Precip Events Conditions
12:00 AM 80.6 °F 80.3 °F 53.6 °F 39% 29.92 in 6.2 mi SE 2.3 mph - N/A   Unknown
1:00 AM 77.0 °F - 50.0 °F 39% 29.92 in 6.2 mi West 6.9 mph - N/A   Unknown
2:00 AM 79 °F - 51 °F 26% 29.91 in 6 mi WSW 4.5 mph - -  
2:00 AM 75.2 °F - 48.2 °F 38% 29.89 in 6.2 mi WSW 4.6 mph - N/A   Unknown
3:00 AM 75.2 °F - 46.4 °F 36% 29.92 in 6.2 mi West 6.9 mph - N/A   Unknown
4:00 AM 75.2 °F - 44.6 °F 34% 29.95 in 6.2 mi WNW 4.6 mph - N/A   Unknown
5:00 AM 75 °F - 43 °F 21% 29.95 in 6 mi WSW 6.7 mph - -  
5:00 AM 75.2 °F - 42.8 °F 31% 29.95 in 6.2 mi West 6.9 mph - N/A   Unknown
6:00 AM 73.4 °F - 44.6 °F 36% 29.95 in 6.2 mi West 6.9 mph - N/A   Unknown
7:00 AM 77.0 °F - 46.4 °F 34% 29.98 in 6.2 mi South 2.3 mph - N/A   Scattered Clouds
8:00 AM 80 °F - 49 °F 23% 29.96 in 6 mi SSW 2.2 mph - -   Scattered Clouds
8:00 AM 82.4 °F - 48.2 °F 30% 29.98 in 6.2 mi Variable 2.3 mph - N/A   Scattered Clouds
9:00 AM 84.2 °F - 44.6 °F 25% 30.01 in 6.2 mi NW 6.9 mph - N/A   Scattered Clouds
10:00 AM 87.8 °F - 41.0 °F 19% 29.98 in 5.6 mi WNW 11.5 mph - N/A   Scattered Clouds
11:00 AM 89 °F - 41 °F 11% 29.97 in 6 mi North 11.2 mph - -   Partly Cloudy
11:00 AM 89.6 °F - 44.6 °F 21% 29.98 in 6.2 mi NNW 11.5 mph - N/A   Scattered Clouds
12:00 PM 91.4 °F - 41.0 °F 17% 29.98 in 6.2 mi WNW 9.2 mph - N/A   Unknown
1:00 PM 93.2 °F - 41.0 °F 16% 29.98 in 6.2 mi NNW 6.9 mph - N/A   Unknown
2:00 PM 95 °F - 37 °F 7% 29.94 in 6 mi NW 15.7 mph - -   Mostly Cloudy
2:00 PM 93.2 °F - 37.4 °F 14% 29.98 in 6.2 mi NNW 6.9 mph - N/A   Unknown
3:00 PM 93.2 °F - 37.4 °F 14% 29.95 in 6.2 mi NNW 6.9 mph - N/A   Unknown
4:00 PM 95.0 °F - 33.8 °F 12% 29.95 in 6.2 mi NNW 4.6 mph - N/A   Unknown
5:00 PM 96 °F - 37 °F 6% 29.91 in 6 mi NNE 8.9 mph - -   Mostly Cloudy
5:00 PM 95.0 °F - 39.2 °F 14% 29.92 in 5.6 mi NNW 6.9 mph - N/A   Unknown
6:00 PM 93.2 °F - 37.4 °F 14% 29.92 in 6.2 mi WNW 6.9 mph - N/A   Unknown
7:00 PM 93.2 °F - 39.2 °F 15% 29.92 in 6.2 mi NNW 4.6 mph - N/A   Scattered Clouds
8:00 PM 92 °F - 40 °F 9% 29.90 in 6 mi North 2.2 mph - -   Partly Cloudy
8:00 PM 91.4 °F - 41.0 °F 17% 29.92 in 6.2 mi North 4.6 mph - N/A   Scattered Clouds
9:00 PM 87.8 °F - 44.6 °F 22% 29.92 in 6.2 mi NNE 2.3 mph - N/A   Scattered Clouds
10:00 PM 84.2 °F - 46.4 °F 27% 29.92 in 5.0 mi South 4.6 mph - N/A   Unknown
11:00 PM 82 °F - 48 °F 20% 29.92 in 6 mi Calm Calm - -  
11:00 PM 80.6 °F - 50.0 °F 34% 29.92 in 5.6 mi NNW 2.3 mph - N/A   Unknown